Regional Weather Roundup
Issued by NWS

Home | Current Version | Previous Version | Graphics & Text | Print | Product List | Glossary On
Versions: 1 2 3 4 5 6 7 8 9 10 11 12 13 14 15 16 17 18 19 20 21 22 23 24 25 26 27 28 29 30 31 32 33 34 35 36 37 38 39 40 41 42 43 44 45 46 47 48 49 50
486
ASUS43 KDMX 251601
RWRIA

WEATHER ROUNDUP FOR IOWA
NATIONAL WEATHER SERVICE DES MOINES IA
1100 AM CDT THU MAY 25 2017

NOTE: "FAIR" INDICATES FEW OR NO CLOUDS BELOW 12,000 FEET WITH NO
SIGNIFICANT WEATHER AND/OR OBSTRUCTIONS TO VISIBILITY.

* - THESE STATIONS ARE NOT NWS STATIONS...THUS NOT UNDER NWS
QUALITY CONTROL.  THEY ALSO DO NOT REPORT WEATHER SUCH
AS PRECIPITATION OR FOG.

IAZ001>003-012>014-020>022-031>034-043>046-251700-
   NORTHWEST IOWA

CITY           SKY/WX    TMP DP  RH WIND       PRES   REMARKS
CARROLL *      SUNNY     66  50  55 S16       29.67F
CHEROKEE *     PTSUNNY   64  49  58 S14G21    29.63F
DENISON *      SUNNY     64  48  55 S17G25    29.66F
LE MARS *      SUNNY     66  48  52 S22G31    29.60F
ORANGE CITY *  SUNNY     64  48  55 S22       29.60F
SHELDON *      MOSUNNY   64  48  55 S24G33    29.59F
SIOUX CITY     SUNNY     65  53  65 S21       29.60F
SPENCER        MOSUNNY   62  47  57 SE21G29   29.63F
STORM LAKE *     N/A     64  46  52 S18G24    29.66S
$$

IAZ055>058-069>071-079>083-090>094-251700-
   SOUTHWEST IOWA

CITY           SKY/WX    TMP DP  RH WIND       PRES   REMARKS
ATLANTIC *     SUNNY     66  48  52 S12       29.67F
AUDUBON *      SUNNY     64  52  63 S13       29.69F
CLARINDA *     SUNNY     66  48  52 S14       29.70S
COUNCIL BLFS * SUNNY     66  52  59 S17G23    29.65S
CRESTON *      SUNNY     63  50  63 S13       29.72S
HARLAN  *      SUNNY     66  48  52 S15G23    29.69F
LAMONI         SUNNY     64  50  60 S8        29.71F
RED OAK *      MOSUNNY   66  50  55 S13G20    29.67S
SHENANDOAH *   MOSUNNY   68  48  49 S16G23    29.67F
$$

IAZ047>049-059>061-072>074-084-251700-
   CENTRAL IOWA

CITY           SKY/WX    TMP DP  RH WIND       PRES   REMARKS
AMES           SUNNY     62  51  67 S5        29.71F
ANKENY *       SUNNY     63  50  63 VRB5      29.73S
BOONE *        SUNNY     61  54  77 S8        29.70F
CHARITON *     SUNNY     63  48  59 CALM      29.71F
DES MOINES     MOSUNNY   64  50  60 S5        29.71F
GRINNELL*      SUNNY     61  49  65 CALM      29.72F
KNOXVILLE *    SUNNY     63  48  59 CALM      29.70S
MARSHALLTOWN   SUNNY     61  51  70 S3        29.70F
NEWTON *       SUNNY     63  50  63 S5        29.71R
PELLA *        SUNNY     64  51  62 SW3       29.72S
PERRY *          N/A     64  51  63 SE10      29.71S
$$

IAZ004>006-015-016-023>025-035-036-251700-
   NORTH CENTRAL IOWA

CITY           SKY/WX    TMP DP  RH WIND       PRES   REMARKS
ALGONA *       MOSUNNY   63  52  67 S14       29.68F
CLARION *      MOSUNNY   63  50  63 S12       29.70F
ESTHERVILLE    MOSUNNY   62  51  67 SE18      29.65F
FORT DODGE *   MOSUNNY   64  50  59 S10       29.69F
MASON CITY     MOSUNNY   61  50  67 S9        29.71F
FOREST CITY *    N/A     64  43  45 SE8       29.70F
WEBSTER CITY * MOSUNNY   63  50  63 S10       29.68F
IOWA FALLS *     N/A     62  52  70 S3        29.72S
$$

IAZ007>011-017>019-026>030-037>042-050>054-066-251700-
   NORTHEAST IOWA

CITY           SKY/WX    TMP DP  RH WIND       PRES   REMARKS
CEDAR RAPIDS   SUNNY     60  53  77 N6        29.70F
CHARLES CITY * MOSUNNY   59  52  77 CALM      29.71F
CLINTON *      CLOUDY    57  53  86 N10       29.71R
DECORAH *      CLOUDY    57  52  82 CALM      29.70F
DUBUQUE        CLOUDY    55  51  86 N5        29.70F
MONTICELLO *   MOSUNNY   61  54  77 VRB7      29.70S
OELWEIN *      PTSUNNY   57  52  82 VRB3      29.72S
WATERLOO       MOSUNNY   61  49  64 CALM      29.70F
$$

IAZ064-065-067-068-078-251700-
   EAST CENTRAL IOWA

CITY           SKY/WX    TMP DP  RH WIND       PRES   REMARKS
DAVENPORT      CLOUDY    59  52  77 NW9       29.70S
IOWA CITY      MOSUNNY   64  52  64 N8        29.72S
MT. PLEASANT * MOSUNNY   62  51  66 NW3       29.72S
MUSCATINE *    MOSUNNY   63  52  67 VRB5G14   29.71S
QUAD CITIES    PTSUNNY   64  52  64 N9        29.69S
$$

IAZ062-063-075>077-085>089-095>099-251700-
   SOUTHEAST IOWA

CITY           SKY/WX    TMP DP  RH WIND       PRES   REMARKS
BURLINGTON     MOSUNNY   64  53  67 W7        29.70S
FAIRFIELD *    SUNNY     63  50  63 W5        29.71S
FORT MADISON * MOSUNNY   64  54  68 NW6       29.72R
KEOKUK *       PTSUNNY   64  54  68 VRB7      29.71S
OSKALOOSA *      N/A     62  49  62 CALM      29.71F
OTTUMWA        SUNNY     62  49  62 CALM      29.71F
WASHINGTON *   MOSUNNY   63  52  67 VRB5G12   29.72S
$$

ABBREVIATIONS USED IN REMARKS
   TC - TEMPERATURES IN CELSIUS
  WCI - WIND CHILL INDEX
   HX - HEAT INDEX
  VSB - VISIBILITY
$$





USA.gov is the U.S. government's official web portal to all federal, state and local government web resources and services.